Thompson, Ohio, United States (44086)
Lat: 41.69N, Lon: 81.05W
Wx Zone: OHZ013
Local Info
Past Weather Observations for Wednesday, October 29, 2014

NOTE: This archive is for the closest National Weather Service station to Thompson. Information may differ from the station used for current weather conditions.

Click here for Long-term Archive

Time Weather Temperature Dewpoint Humidity Pressure Winds Precip Visibility
23:53
Mostly Cloudy
43°F / 6°C 39°F / 4°C 87% 30.06 in
(1018 mb)
SSW 3.5 mph
(SSW 6 kph)
- 10SM
22:53
Overcast
43°F / 6°C 43°F / 6°C 100% 30.06 in
(1018 mb)
SW 4.6 mph
(SW 7 kph)
0.00 in
(0.00 mm)
10SM
21:53
Overcast
Light Rain
43°F / 6°C 41°F / 5°C 93% 30.04 in
(1017 mb)
SSW 8.1 mph
(SSW 13 kph)
0.13 in
(3.30 mm)
8SM
20:53
Overcast
Light Rain
45°F / 7°C 41°F / 5°C 87% 30.04 in
(1017 mb)
SW 9.2 mph
(SW 15 kph)
0.02 in
(0.51 mm)
6SM
20:29
Overcast
Light Rain
45°F / 7°C 41°F / 5°C 87% 30.04 in
(1017 mb)
SW 6.9 mph
(SW 11 kph)
0.00 in
(0.00 mm)
10SM
19:53
Overcast
Light Rain
45°F / 7°C 41°F / 5°C 87% 30.04 in
(1017 mb)
SSW 10.4 mph
(SSW 17 kph)
0.03 in
(0.76 mm)
6SM
18:53
Overcast
45°F / 7°C 41°F / 5°C 87% 30.04 in
(1017 mb)
SSW 6.9 mph
(SSW 11 kph)
0.00 in
(0.00 mm)
10SM
18:11
Overcast
Light Rain
45°F / 7°C 43°F / 6°C 93% 30.04 in
(1017 mb)
W 9.2 mph
(W 15 kph)
0.00 in
(0.00 mm)
9SM
17:53
Overcast
Light Rain
45°F / 7°C 43°F / 6°C 93% 30.01 in
(1016 mb)
SSW 6.9 mph
(SSW 11 kph)
0.07 in
(1.78 mm)
6SM
17:35
Overcast
Rain
46°F / 8°C 41°F / 5°C 82% 30.01 in
(1016 mb)
W 8.1 mph
(W 13 kph)
0.05 in
(1.27 mm)
6SM
16:53
Overcast
Light Rain
46°F / 8°C 39°F / 4°C 76% 30.01 in
(1016 mb)
W 13.8 mph
(W 22 kph)
0.01 in
(0.25 mm)
6SM
15:53
Overcast
50°F / 10°C 36°F / 2°C 58% 29.98 in
(1015 mb)
SSW 11.5 mph
(SSW 19 kph)
- 10SM
14:53
Overcast
52°F / 11°C 37°F / 3°C 58% 29.98 in
(1015 mb)
SSW 15 mph
(SSW 24 kph)
- 10SM
13:53
Overcast
52°F / 11°C 37°F / 3°C 58% 29.95 in
(1014 mb)
WNW 17.3 mph
(WNW 28 kph)
- 10SM
12:53
Mostly Cloudy
54°F / 12°C 36°F / 2°C 51% 29.95 in
(1014 mb)
WNW 11.5 mph
(WNW 19 kph)
- 10SM
11:53
Overcast
54°F / 12°C 36°F / 2°C 51% 29.98 in
(1015 mb)
W 19.6 mph
(W 32 kph)
- 10SM
10:53
Partly Cloudy
54°F / 12°C 39°F / 4°C 58% 29.98 in
(1015 mb)
SW 11.5 mph
(SW 19 kph)
- 10SM
09:53
Clear
50°F / 10°C 39°F / 4°C 67% 29.98 in
(1015 mb)
SW 11.5 mph
(SW 19 kph)
- 10SM
08:53
Clear
46°F / 8°C 39°F / 4°C 76% 29.98 in
(1015 mb)
SW 10.4 mph
(SW 17 kph)
- 10SM
07:53
Overcast
46°F / 8°C 39°F / 4°C 76% 29.98 in
(1015 mb)
SW 9.2 mph
(SW 15 kph)
- 10SM
06:53
Clear
45°F / 7°C 39°F / 4°C 81% 29.98 in
(1015 mb)
SW 8.1 mph
(SW 13 kph)
- 10SM
05:53
Clear
46°F / 8°C 39°F / 4°C 76% 29.98 in
(1015 mb)
SW 9.2 mph
(SW 15 kph)
- 10SM
04:53
Clear
46°F / 8°C 41°F / 5°C 82% 29.95 in
(1014 mb)
SW 9.2 mph
(SW 15 kph)
- 10SM
03:53
Clear
48°F / 9°C 41°F / 5°C 76% 29.95 in
(1014 mb)
SW 6.9 mph
(SW 11 kph)
- 10SM
02:53
Mostly Cloudy
48°F / 9°C 43°F / 6°C 82% 29.95 in
(1014 mb)
SW 8.1 mph
(SW 13 kph)
- 10SM
01:53
Clear
46°F / 8°C 43°F / 6°C 87% 29.95 in
(1014 mb)
SSE 5.8 mph
(SSE 9 kph)
- 10SM
00:53
Partly Cloudy
48°F / 9°C 45°F / 7°C 87% 29.95 in
(1014 mb)
SW 4.6 mph
(SW 7 kph)
- 10SM
Time Weather Temperature Dewpoint Humidity Pressure Winds Precip Visibility


Weather for websites

WeatherForYou.com, LLC is not responsible for any damages or problems caused by this service. Current weather conditions are obtained from the closest station including government and personal stations which may have varying degrees of accuracy. Weather forecasts are derived from the NOAA NDFD. Like all things, this site belongs to Jesus Christ... He just trusts me to maintain it. If you have any questions or comments email webmaster@weatherforyou.com

Copyright © 2014, WeatherForYou.com LLC. All rights reserved.